DANDE

Last updated on Thu Mar 15 2018 21:46:20 GMT+0000 (Coordinated Universal Time)

1 39267U 13055C 18074.16333064 .00003198 00000-0 95056-4 0 9997 2 39267 81.0095 109.2265 0706260 211.6376 144.0480 14.18663990229432

Satellite not in orbit

DANDE